Time,TemperatureF,DewpointF,PressureIn,WindDirection,WindDirectionDegrees,WindSpeedMPH,WindSpeedGustMPH,Humidity,HourlyPrecipIn,Conditions,Clouds,dailyrainin,SoftwareType,DateUTC
2013-04-22 00:01:00,53.9,37.6,30.38,ESE,119,1.0,3.0,54,0.00,,,0.00,Wunderground v.1.13,2013-04-22 04:01:00,
2013-04-22 00:02:00,53.9,37.6,30.38,ESE,119,1.0,3.0,54,0.00,,,0.00,Wunderground v.1.13,2013-04-22 04:02:00,
2013-04-22 00:06:00,53.8,37.5,30.38,ESE,112,1.0,3.0,54,0.00,,,0.00,Wunderground v.1.13,2013-04-22 04:06:00,
2013-04-22 00:10:00,53.6,37.3,30.38,ESE,112,1.0,1.0,54,0.00,,,0.00,Wunderground v.1.13,2013-04-22 04:10:00,
2013-04-22 00:12:00,53.6,37.8,30.38,ESE,112,1.0,1.0,55,0.00,,,0.00,Wunderground v.1.13,2013-04-22 04:12:00,
2013-04-22 00:18:00,53.4,37.6,30.38,ESE,111,0.0,3.0,55,0.00,,,0.00,Wunderground v.1.13,2013-04-22 04:18:00,
2013-04-22 00:24:00,53.3,37.5,30.38,ESE,112,0.0,1.0,55,0.00,,,0.00,Wunderground v.1.13,2013-04-22 04:24:00,
2013-04-22 00:29:00,53.2,37.9,30.38,ESE,109,1.0,2.0,56,0.00,,,0.00,Wunderground v.1.13,2013-04-22 04:29:00,
2013-04-22 00:34:00,53.1,37.8,30.38,ESE,109,1.0,4.0,56,0.00,,,0.00,Wunderground v.1.13,2013-04-22 04:34:00,
2013-04-22 00:39:00,53.0,37.7,30.38,ESE,111,2.0,3.0,56,0.00,,,0.00,Wunderground v.1.13,2013-04-22 04:39:00,
2013-04-22 00:45:00,53.0,38.2,30.38,ESE,108,2.0,2.0,57,0.00,,,0.00,Wunderground v.1.13,2013-04-22 04:45:00,
2013-04-22 00:50:00,52.9,38.1,30.38,ESE,106,1.0,1.0,57,0.00,,,0.00,Wunderground v.1.13,2013-04-22 04:50:00,
2013-04-22 00:56:00,52.8,38.0,30.38,ESE,106,0.0,0.0,57,0.00,,,0.00,Wunderground v.1.13,2013-04-22 04:56:00,
2013-04-22 01:02:00,52.5,38.1,30.38,ESE,106,0.0,1.0,58,0.00,,,0.00,Wunderground v.1.13,2013-04-22 05:02:00,
2013-04-22 01:07:00,52.3,38.0,30.38,ESE,106,0.0,0.0,58,0.00,,,0.00,Wunderground v.1.13,2013-04-22 05:07:00,
2013-04-22 01:13:00,52.0,38.1,30.38,ESE,106,0.0,0.0,59,0.00,,,0.00,Wunderground v.1.13,2013-04-22 05:13:00,
2013-04-22 01:19:00,51.7,37.8,30.37,ESE,106,0.0,0.0,59,0.00,,,0.00,Wunderground v.1.13,2013-04-22 05:19:00,
2013-04-22 01:24:00,51.4,38.0,30.37,ESE,106,0.0,0.0,60,0.00,,,0.00,Wunderground v.1.13,2013-04-22 05:24:00,
2013-04-22 01:30:00,51.0,37.6,30.37,ESE,106,0.0,0.0,60,0.00,,,0.00,Wunderground v.1.13,2013-04-22 05:30:00,
2013-04-22 01:36:00,50.5,37.5,30.37,ESE,106,0.0,0.0,61,0.00,,,0.00,Wunderground v.1.13,2013-04-22 05:36:00,
2013-04-22 01:41:00,50.3,37.8,30.37,ESE,106,0.0,0.0,62,0.00,,,0.00,Wunderground v.1.13,2013-04-22 05:41:00,
2013-04-22 01:47:00,49.9,37.8,30.37,ESE,106,0.0,0.0,63,0.00,,,0.00,Wunderground v.1.13,2013-04-22 05:47:00,
2013-04-22 01:53:00,49.4,37.7,30.36,ESE,106,0.0,0.0,64,0.00,,,0.00,Wunderground v.1.13,2013-04-22 05:53:00,
2013-04-22 01:58:00,49.0,37.7,30.36,ESE,106,0.0,0.0,65,0.00,,,0.00,Wunderground v.1.13,2013-04-22 05:58:00,
2013-04-22 02:03:00,48.7,37.8,30.36,ESE,106,0.0,0.0,66,0.00,,,0.00,Wunderground v.1.13,2013-04-22 06:03:00,
2013-04-22 02:09:00,48.2,37.4,30.36,ESE,106,0.0,0.0,66,0.00,,,0.00,Wunderground v.1.13,2013-04-22 06:09:00,
2013-04-22 02:14:00,47.8,37.0,30.36,ESE,106,0.0,0.0,66,0.00,,,0.00,Wunderground v.1.13,2013-04-22 06:14:00,
2013-04-22 02:20:00,47.2,37.2,30.36,ESE,106,0.0,0.0,68,0.00,,,0.00,Wunderground v.1.13,2013-04-22 06:20:00,
2013-04-22 02:25:00,46.5,36.9,30.36,ESE,106,0.0,0.0,69,0.00,,,0.00,Wunderground v.1.13,2013-04-22 06:25:00,
2013-04-22 02:31:00,46.0,36.8,30.36,ESE,106,0.0,0.0,70,0.00,,,0.00,Wunderground v.1.13,2013-04-22 06:31:00,
2013-04-22 02:37:00,45.5,36.6,30.36,ESE,106,0.0,0.0,71,0.00,,,0.00,Wunderground v.1.13,2013-04-22 06:37:00,
2013-04-22 02:43:00,45.1,36.6,30.36,ESE,106,0.0,0.0,72,0.00,,,0.00,Wunderground v.1.13,2013-04-22 06:43:00,
2013-04-22 02:48:00,44.9,36.8,30.36,ESE,106,0.0,0.0,73,0.00,,,0.00,Wunderground v.1.13,2013-04-22 06:48:00,
2013-04-22 02:54:00,44.5,36.7,30.36,ESE,106,0.0,0.0,74,0.00,,,0.00,Wunderground v.1.13,2013-04-22 06:54:00,
2013-04-22 02:59:00,44.3,36.5,30.36,ESE,106,0.0,0.0,74,0.00,,,0.00,Wunderground v.1.13,2013-04-22 06:59:00,
2013-04-22 03:04:00,44.0,36.6,30.36,ESE,106,0.0,0.0,75,0.00,,,0.00,Wunderground v.1.13,2013-04-22 07:04:00,
2013-04-22 03:10:00,43.7,36.6,30.36,ESE,106,0.0,0.0,76,0.00,,,0.00,Wunderground v.1.13,2013-04-22 07:10:00,
2013-04-22 03:16:00,43.3,36.6,30.36,ESE,106,0.0,0.0,77,0.00,,,0.00,Wunderground v.1.13,2013-04-22 07:16:00,
2013-04-22 03:21:00,43.0,36.6,30.36,ESE,106,0.0,0.0,78,0.00,,,0.00,Wunderground v.1.13,2013-04-22 07:21:00,
2013-04-22 03:27:00,42.7,36.3,30.36,ESE,106,0.0,0.0,78,0.00,,,0.00,Wunderground v.1.13,2013-04-22 07:27:00,
2013-04-22 03:32:00,42.4,36.0,30.35,ESE,106,0.0,0.0,78,0.00,,,0.00,Wunderground v.1.13,2013-04-22 07:32:00,
2013-04-22 03:37:00,42.2,36.2,30.35,ESE,106,0.0,0.0,79,0.00,,,0.00,Wunderground v.1.13,2013-04-22 07:37:00,
2013-04-22 03:43:00,41.9,36.2,30.35,ESE,106,0.0,0.0,80,0.00,,,0.00,Wunderground v.1.13,2013-04-22 07:43:00,
2013-04-22 03:48:00,41.6,36.2,30.35,ESE,106,0.0,0.0,81,0.00,,,0.00,Wunderground v.1.13,2013-04-22 07:48:00,
2013-04-22 03:54:00,41.4,36.0,30.36,ESE,106,0.0,0.0,81,0.00,,,0.00,Wunderground v.1.13,2013-04-22 07:54:00,
2013-04-22 04:00:00,41.2,35.8,30.35,ESE,106,0.0,0.0,81,0.00,,,0.00,Wunderground v.1.13,2013-04-22 08:00:00,
2013-04-22 04:05:00,41.1,35.7,30.35,ESE,106,0.0,0.0,81,0.00,,,0.00,Wunderground v.1.13,2013-04-22 08:05:00,
2013-04-22 04:10:00,40.9,35.8,30.35,ESE,106,0.0,0.0,82,0.00,,,0.00,Wunderground v.1.13,2013-04-22 08:10:00,
2013-04-22 04:16:00,40.7,35.6,30.35,ESE,106,0.0,0.0,82,0.00,,,0.00,Wunderground v.1.13,2013-04-22 08:16:00,
2013-04-22 04:21:00,40.5,35.4,30.35,ESE,106,0.0,0.0,82,0.00,,,0.00,Wunderground v.1.13,2013-04-22 08:21:00,
2013-04-22 04:27:00,40.4,35.6,30.35,ESE,106,0.0,0.0,83,0.00,,,0.00,Wunderground v.1.13,2013-04-22 08:27:00,
2013-04-22 04:32:00,40.3,35.8,30.35,ESE,106,0.0,0.0,84,0.00,,,0.00,Wunderground v.1.13,2013-04-22 08:32:00,
2013-04-22 04:38:00,40.5,36.3,30.35,ESE,106,0.0,1.0,85,0.00,,,0.00,Wunderground v.1.13,2013-04-22 08:38:00,
2013-04-22 04:43:00,40.7,36.5,30.35,ESE,106,0.0,0.0,85,0.00,,,0.00,Wunderground v.1.13,2013-04-22 08:43:00,
2013-04-22 04:49:00,41.1,36.9,30.35,ESE,106,0.0,0.0,85,0.00,,,0.00,Wunderground v.1.13,2013-04-22 08:49:00,
2013-04-22 04:54:00,41.6,37.4,30.36,ESE,106,0.0,0.0,85,0.00,,,0.00,Wunderground v.1.13,2013-04-22 08:54:00,
2013-04-22 05:00:00,42.2,37.7,30.35,ESE,107,0.0,1.0,84,0.00,,,0.00,Wunderground v.1.13,2013-04-22 09:00:00,
2013-04-22 05:05:00,42.7,37.9,30.36,ESE,107,1.0,2.0,83,0.00,,,0.00,Wunderground v.1.13,2013-04-22 09:05:00,
2013-04-22 05:10:00,43.1,37.7,30.36,ESE,107,1.0,1.0,81,0.00,,,0.00,Wunderground v.1.13,2013-04-22 09:10:00,
2013-04-22 05:16:00,43.4,37.6,30.36,ESE,107,0.0,1.0,80,0.00,,,0.00,Wunderground v.1.13,2013-04-22 09:16:00,
2013-04-22 05:22:00,43.5,37.4,30.36,ESE,107,0.0,0.0,79,0.00,,,0.00,Wunderground v.1.13,2013-04-22 09:22:00,
2013-04-22 05:27:00,43.6,37.5,30.35,ESE,106,0.0,0.0,79,0.00,,,0.00,Wunderground v.1.13,2013-04-22 09:27:00,
2013-04-22 05:32:00,43.7,37.3,30.36,ESE,105,1.0,4.0,78,0.00,,,0.00,Wunderground v.1.13,2013-04-22 09:32:00,
2013-04-22 05:37:00,43.9,37.5,30.36,ESE,105,1.0,1.0,78,0.00,,,0.00,Wunderground v.1.13,2013-04-22 09:37:00,
2013-04-22 05:43:00,44.0,37.3,30.36,ESE,105,0.0,1.0,77,0.00,,,0.00,Wunderground v.1.13,2013-04-22 09:43:00,
2013-04-22 05:49:00,43.9,37.2,30.36,ESE,105,0.0,0.0,77,0.00,,,0.00,Wunderground v.1.13,2013-04-22 09:49:00,
2013-04-22 05:54:00,43.9,37.2,30.36,ESE,105,0.0,1.0,77,0.00,,,0.00,Wunderground v.1.13,2013-04-22 09:54:00,
2013-04-22 06:00:00,43.9,37.2,30.36,ESE,105,0.0,0.0,77,0.00,,,0.00,Wunderground v.1.13,2013-04-22 10:00:00,
2013-04-22 06:06:00,43.8,37.1,30.36,ESE,105,0.0,0.0,77,0.00,,,0.00,Wunderground v.1.13,2013-04-22 10:06:00,
2013-04-22 06:12:00,43.8,37.1,30.36,ESE,105,0.0,0.0,77,0.00,,,0.00,Wunderground v.1.13,2013-04-22 10:12:00,
2013-04-22 06:17:00,43.7,37.0,30.36,ESE,105,0.0,0.0,77,0.00,,,0.00,Wunderground v.1.13,2013-04-22 10:17:00,
2013-04-22 06:23:00,43.7,37.3,30.37,ESE,105,0.0,0.0,78,0.00,,,0.00,Wunderground v.1.13,2013-04-22 10:23:00,
2013-04-22 06:28:00,43.6,37.2,30.37,ESE,105,0.0,0.0,78,0.00,,,0.00,Wunderground v.1.13,2013-04-22 10:28:00,
2013-04-22 06:33:00,43.5,37.1,30.37,ESE,105,0.0,0.0,78,0.00,,,0.00,Wunderground v.1.13,2013-04-22 10:33:00,
2013-04-22 06:39:00,43.5,37.1,30.37,ESE,105,0.0,0.0,78,0.00,,,0.00,Wunderground v.1.13,2013-04-22 10:39:00,
2013-04-22 06:44:00,43.5,37.1,30.37,ESE,105,0.0,1.0,78,0.00,,,0.00,Wunderground v.1.13,2013-04-22 10:44:00,
2013-04-22 06:50:00,43.4,37.0,30.37,ESE,105,0.0,0.0,78,0.00,,,0.00,Wunderground v.1.13,2013-04-22 10:50:00,
2013-04-22 06:56:00,43.3,36.9,30.38,ESE,105,0.0,0.0,78,0.00,,,0.00,Wunderground v.1.13,2013-04-22 10:56:00,
2013-04-22 07:01:00,43.3,36.9,30.38,ESE,105,0.0,0.0,78,0.00,,,0.00,Wunderground v.1.13,2013-04-22 11:01:00,
2013-04-22 07:07:00,43.2,36.8,30.38,ESE,105,0.0,0.0,78,0.00,,,0.00,Wunderground v.1.13,2013-04-22 11:07:00,
2013-04-22 07:13:00,43.2,36.8,30.38,ESE,105,0.0,0.0,78,0.00,,,0.00,Wunderground v.1.13,2013-04-22 11:13:00,
2013-04-22 07:18:00,43.3,37.2,30.38,ESE,105,0.0,0.0,79,0.00,,,0.00,Wunderground v.1.13,2013-04-22 11:18:00,
2013-04-22 07:24:00,43.4,37.3,30.38,ESE,105,0.0,1.0,79,0.00,,,0.00,Wunderground v.1.13,2013-04-22 11:24:00,
2013-04-22 07:30:00,43.6,37.5,30.39,ESE,105,0.0,0.0,79,0.00,,,0.00,Wunderground v.1.13,2013-04-22 11:30:00,
2013-04-22 07:36:00,44.1,37.7,30.39,ESE,105,0.0,1.0,78,0.00,,,0.00,Wunderground v.1.13,2013-04-22 11:36:00,
2013-04-22 07:41:00,44.6,38.2,30.39,ESE,105,0.0,0.0,78,0.00,,,0.00,Wunderground v.1.13,2013-04-22 11:41:00,
2013-04-22 07:47:00,45.1,38.3,30.39,East,101,1.0,3.0,77,0.00,,,0.00,Wunderground v.1.13,2013-04-22 11:47:00,
2013-04-22 07:53:00,46.0,38.9,30.39,East,98,3.0,5.0,76,0.00,,,0.00,Wunderground v.1.13,2013-04-22 11:53:00,
2013-04-22 07:59:00,46.7,39.2,30.40,East,97,2.0,3.0,75,0.00,,,0.00,Wunderground v.1.13,2013-04-22 11:59:00,
2013-04-22 08:05:00,47.4,39.2,30.40,East,97,2.0,4.0,73,0.00,,,0.00,Wunderground v.1.13,2013-04-22 12:05:00,
2013-04-22 08:11:00,48.1,39.9,30.40,East,96,2.0,2.0,73,0.00,,,0.00,Wunderground v.1.13,2013-04-22 12:11:00,
2013-04-22 08:16:00,48.7,40.1,30.40,East,92,1.0,1.0,72,0.00,,,0.00,Wunderground v.1.13,2013-04-22 12:16:00,
2013-04-22 08:22:00,49.2,39.8,30.40,East,96,2.0,6.0,70,0.00,,,0.00,Wunderground v.1.13,2013-04-22 12:22:00,
2013-04-22 08:28:00,49.7,39.9,30.40,East,99,3.0,5.0,69,0.00,,,0.00,Wunderground v.1.13,2013-04-22 12:28:00,
2013-04-22 08:33:00,50.2,40.0,30.40,East,93,3.0,4.0,68,0.00,,,0.00,Wunderground v.1.13,2013-04-22 12:33:00,
2013-04-22 08:39:00,50.8,40.2,30.40,East,91,2.0,5.0,67,0.00,,,0.00,Wunderground v.1.13,2013-04-22 12:39:00,
2013-04-22 08:45:00,51.3,40.3,30.40,ESE,109,3.0,6.0,66,0.00,,,0.00,Wunderground v.1.13,2013-04-22 12:45:00,
2013-04-22 08:50:00,51.8,40.4,30.40,East,94,4.0,7.0,65,0.00,,,0.00,Wunderground v.1.13,2013-04-22 12:50:00,
2013-04-22 08:56:00,52.3,40.5,30.40,East,90,4.0,6.0,64,0.00,,,0.00,Wunderground v.1.13,2013-04-22 12:56:00,
2013-04-22 09:01:00,52.7,40.5,30.40,East,91,4.0,5.0,63,0.00,,,0.00,Wunderground v.1.13,2013-04-22 13:01:00,
2013-04-22 09:07:00,53.1,40.8,30.40,East,99,4.0,4.0,63,0.00,,,0.00,Wunderground v.1.13,2013-04-22 13:07:00,
2013-04-22 09:12:00,53.3,40.6,30.40,East,92,4.0,7.0,62,0.00,,,0.00,Wunderground v.1.13,2013-04-22 13:12:00,
2013-04-22 09:18:00,53.4,40.3,30.40,ENE,72,5.0,6.0,61,0.00,,,0.00,Wunderground v.1.13,2013-04-22 13:18:00,
2013-04-22 09:23:00,53.6,40.5,30.40,ESE,119,6.0,7.0,61,0.00,,,0.00,Wunderground v.1.13,2013-04-22 13:23:00,
2013-04-22 09:29:00,53.7,40.1,30.40,ESE,102,7.0,11.0,60,0.00,,,0.00,Wunderground v.1.13,2013-04-22 13:29:00,
2013-04-22 09:35:00,54.0,40.4,30.40,ESE,109,6.0,6.0,60,0.00,,,0.00,Wunderground v.1.13,2013-04-22 13:35:00,
2013-04-22 09:40:00,54.6,41.0,30.40,East,92,4.0,5.0,60,0.00,,,0.00,Wunderground v.1.13,2013-04-22 13:40:00,
2013-04-22 09:46:00,55.2,41.1,30.39,East,92,4.0,5.0,59,0.00,,,0.00,Wunderground v.1.13,2013-04-22 13:46:00,
2013-04-22 09:51:00,55.8,41.2,30.39,ENE,69,4.0,4.0,58,0.00,,,0.00,Wunderground v.1.13,2013-04-22 13:51:00,
2013-04-22 09:57:00,56.4,41.3,30.40,SE,130,3.0,5.0,57,0.00,,,0.00,Wunderground v.1.13,2013-04-22 13:57:00,
2013-04-22 10:02:00,56.4,41.3,30.39,NE,48,3.0,4.0,57,0.00,,,0.00,Wunderground v.1.13,2013-04-22 14:02:00,
2013-04-22 10:08:00,56.6,41.1,30.39,East,101,3.0,7.0,56,0.00,,,0.00,Wunderground v.1.13,2013-04-22 14:08:00,
2013-04-22 10:13:00,57.1,41.5,30.39,ENE,63,3.0,4.0,56,0.00,,,0.00,Wunderground v.1.13,2013-04-22 14:13:00,
2013-04-22 10:19:00,57.7,41.6,30.39,East,91,2.0,4.0,55,0.00,,,0.00,Wunderground v.1.13,2013-04-22 14:19:00,
2013-04-22 10:24:00,58.0,41.9,30.39,NE,39,2.0,5.0,55,0.00,,,0.00,Wunderground v.1.13,2013-04-22 14:24:00,
2013-04-22 10:30:00,58.1,41.5,30.39,ESE,123,4.0,4.0,54,0.00,,,0.00,Wunderground v.1.13,2013-04-22 14:30:00,
2013-04-22 10:35:00,58.3,42.2,30.39,East,82,4.0,4.0,55,0.00,,,0.00,Wunderground v.1.13,2013-04-22 14:35:00,
2013-04-22 10:40:00,58.7,42.1,30.39,ESE,104,3.0,5.0,54,0.00,,,0.00,Wunderground v.1.13,2013-04-22 14:40:00,
2013-04-22 10:46:00,59.0,42.8,30.38,East,88,3.0,5.0,55,0.00,,,0.00,Wunderground v.1.13,2013-04-22 14:46:00,
2013-04-22 10:52:00,59.1,42.5,30.39,ENE,73,3.0,7.0,54,0.00,,,0.00,Wunderground v.1.13,2013-04-22 14:52:00,
2013-04-22 10:57:00,59.6,43.4,30.39,East,97,3.0,5.0,55,0.00,,,0.00,Wunderground v.1.13,2013-04-22 14:57:00,
2013-04-22 11:03:00,60.1,43.4,30.38,NE,48,2.0,3.0,54,0.00,,,0.00,Wunderground v.1.13,2013-04-22 15:03:00,
2013-04-22 11:09:00,60.5,42.8,30.38,ENE,76,3.0,7.0,52,0.00,,,0.00,Wunderground v.1.13,2013-04-22 15:09:00,
2013-04-22 11:15:00,60.7,43.5,30.38,ESE,110,3.0,4.0,53,0.00,,,0.00,Wunderground v.1.13,2013-04-22 15:15:00,
2013-04-22 11:20:00,61.0,43.2,30.38,NE,55,3.0,3.0,52,0.00,,,0.00,Wunderground v.1.13,2013-04-22 15:20:00,
2013-04-22 11:26:00,61.2,43.4,30.38,NNE,32,3.0,6.0,52,0.00,,,0.00,Wunderground v.1.13,2013-04-22 15:26:00,
2013-04-22 11:31:00,61.4,43.1,30.37,NE,55,3.0,3.0,51,0.00,,,0.00,Wunderground v.1.13,2013-04-22 15:31:00,
2013-04-22 11:37:00,61.4,43.1,30.37,East,95,3.0,3.0,51,0.00,,,0.00,Wunderground v.1.13,2013-04-22 15:37:00,
2013-04-22 11:43:00,61.5,42.2,30.37,NNE,30,4.0,6.0,49,0.00,,,0.00,Wunderground v.1.13,2013-04-22 15:43:00,
2013-04-22 11:48:00,61.4,42.1,30.37,East,79,5.0,6.0,49,0.00,,,0.00,Wunderground v.1.13,2013-04-22 15:48:00,
2013-04-22 11:54:00,61.9,41.4,30.37,ESE,106,4.0,6.0,47,0.00,,,0.00,Wunderground v.1.13,2013-04-22 15:54:00,
2013-04-22 12:00:00,62.5,42.0,30.36,East,93,3.0,6.0,47,0.00,,,0.00,Wunderground v.1.13,2013-04-22 16:00:00,
2013-04-22 12:06:00,62.7,42.7,30.36,East,99,3.0,6.0,48,0.00,,,0.00,Wunderground v.1.13,2013-04-22 16:06:00,
2013-04-22 12:11:00,62.5,42.5,30.36,East,80,5.0,5.0,48,0.00,,,0.00,Wunderground v.1.13,2013-04-22 16:11:00,
2013-04-22 12:17:00,62.8,42.8,30.36,East,82,4.0,7.0,48,0.00,,,0.00,Wunderground v.1.13,2013-04-22 16:17:00,
2013-04-22 12:23:00,62.4,42.4,30.36,ENE,69,5.0,5.0,48,0.00,,,0.00,Wunderground v.1.13,2013-04-22 16:23:00,
2013-04-22 12:28:00,62.7,42.7,30.36,NE,51,4.0,6.0,48,0.00,,,0.00,Wunderground v.1.13,2013-04-22 16:28:00,
2013-04-22 12:34:00,63.0,43.0,30.35,East,90,5.0,10.0,48,0.00,,,0.00,Wunderground v.1.13,2013-04-22 16:34:00,
2013-04-22 12:40:00,62.9,42.9,30.35,East,90,6.0,6.0,48,0.00,,,0.00,Wunderground v.1.13,2013-04-22 16:40:00,
2013-04-22 12:45:00,63.2,43.2,30.34,NE,50,4.0,4.0,48,0.00,,,0.00,Wunderground v.1.13,2013-04-22 16:45:00,
2013-04-22 12:51:00,63.6,43.5,30.34,NE,44,4.0,7.0,48,0.00,,,0.00,Wunderground v.1.13,2013-04-22 16:51:00,
2013-04-22 12:56:00,63.6,43.0,30.34,NNE,32,4.0,11.0,47,0.00,,,0.00,Wunderground v.1.13,2013-04-22 16:56:00,
2013-04-22 13:01:00,63.0,43.5,30.34,ENE,71,5.0,9.0,49,0.00,,,0.00,Wunderground v.1.13,2013-04-22 17:01:00,
2013-04-22 13:07:00,63.5,42.3,30.34,NE,34,5.0,6.0,46,0.00,,,0.00,Wunderground v.1.13,2013-04-22 17:07:00,
2013-04-22 13:13:00,64.1,42.9,30.33,North,355,3.0,6.0,46,0.00,,,0.00,Wunderground v.1.13,2013-04-22 17:13:00,
2013-04-22 13:18:00,64.3,43.1,30.33,East,82,3.0,5.0,46,0.00,,,0.00,Wunderground v.1.13,2013-04-22 17:18:00,
2013-04-22 13:24:00,64.6,42.8,30.33,East,86,4.0,6.0,45,0.00,,,0.00,Wunderground v.1.13,2013-04-22 17:24:00,
2013-04-22 13:30:00,64.9,42.5,30.33,East,98,2.0,2.0,44,0.00,,,0.00,Wunderground v.1.13,2013-04-22 17:30:00,
2013-04-22 13:36:00,65.2,42.7,30.32,ESE,104,2.0,3.0,44,0.00,,,0.00,Wunderground v.1.13,2013-04-22 17:36:00,
2013-04-22 13:41:00,65.7,43.8,30.32,East,83,3.0,3.0,45,0.00,,,0.00,Wunderground v.1.13,2013-04-22 17:41:00,
2013-04-22 13:47:00,65.7,43.2,30.32,ENE,65,3.0,3.0,44,0.00,,,0.00,Wunderground v.1.13,2013-04-22 17:47:00,
2013-04-22 13:52:00,66.0,43.5,30.32,East,81,1.0,4.0,44,0.00,,,0.00,Wunderground v.1.13,2013-04-22 17:52:00,
2013-04-22 13:58:00,66.3,43.1,30.32,NE,36,2.0,6.0,43,0.00,,,0.00,Wunderground v.1.13,2013-04-22 17:58:00,
2013-04-22 14:04:00,66.1,43.5,30.31,ENE,77,3.0,4.0,44,0.00,,,0.00,Wunderground v.1.13,2013-04-22 18:04:00,
2013-04-22 14:09:00,66.7,43.5,30.31,East,80,1.0,3.0,43,0.00,,,0.00,Wunderground v.1.13,2013-04-22 18:09:00,
2013-04-22 14:15:00,67.0,42.5,30.31,NE,44,1.0,1.0,41,0.00,,,0.00,Wunderground v.1.13,2013-04-22 18:15:00,
2013-04-22 14:21:00,67.2,42.7,30.30,ESE,119,1.0,1.0,41,0.00,,,0.00,Wunderground v.1.13,2013-04-22 18:21:00,
2013-04-22 14:26:00,67.0,43.1,30.30,ENE,76,3.0,10.0,42,0.00,,,0.00,Wunderground v.1.13,2013-04-22 18:26:00,
2013-04-22 14:31:00,66.3,42.5,30.29,NNE,30,5.0,9.0,42,0.00,,,0.00,Wunderground v.1.13,2013-04-22 18:31:00,
2013-04-22 14:37:00,65.9,43.4,30.29,ENE,57,5.0,7.0,44,0.00,,,0.00,Wunderground v.1.13,2013-04-22 18:37:00,
2013-04-22 14:42:00,65.8,43.3,30.29,ENE,63,5.0,5.0,44,0.00,,,0.00,Wunderground v.1.13,2013-04-22 18:42:00,
2013-04-22 14:48:00,66.1,42.9,30.28,East,86,4.0,6.0,43,0.00,,,0.00,Wunderground v.1.13,2013-04-22 18:48:00,
2013-04-22 14:53:00,66.2,43.0,30.28,East,82,3.0,11.0,43,0.00,,,0.00,Wunderground v.1.13,2013-04-22 18:53:00,
2013-04-22 14:59:00,66.2,42.4,30.28,ESE,103,4.0,8.0,42,0.00,,,0.00,Wunderground v.1.13,2013-04-22 18:59:00,
2013-04-22 15:05:00,65.9,42.8,30.27,NNE,32,6.0,6.0,43,0.00,,,0.00,Wunderground v.1.13,2013-04-22 19:05:00,
2013-04-22 15:11:00,66.2,42.4,30.27,ENE,59,4.0,7.0,42,0.00,,,0.00,Wunderground v.1.13,2013-04-22 19:11:00,
2013-04-22 15:16:00,66.4,42.6,30.27,NE,42,4.0,6.0,42,0.00,,,0.00,Wunderground v.1.13,2013-04-22 19:16:00,
2013-04-22 15:22:00,66.7,42.2,30.26,NE,41,3.0,4.0,41,0.00,,,0.00,Wunderground v.1.13,2013-04-22 19:22:00,
2013-04-22 15:27:00,66.7,42.2,30.26,ENE,61,3.0,7.0,41,0.00,,,0.00,Wunderground v.1.13,2013-04-22 19:27:00,
2013-04-22 15:32:00,66.7,42.2,30.26,NE,45,4.0,8.0,41,0.00,,,0.00,Wunderground v.1.13,2013-04-22 19:32:00,
2013-04-22 15:38:00,66.8,42.3,30.26,East,82,5.0,9.0,41,0.00,,,0.00,Wunderground v.1.13,2013-04-22 19:38:00,
2013-04-22 15:43:00,66.8,42.3,30.25,NE,38,5.0,9.0,41,0.00,,,0.00,Wunderground v.1.13,2013-04-22 19:43:00,
2013-04-22 15:49:00,66.8,42.3,30.25,East,98,4.0,7.0,41,0.00,,,0.00,Wunderground v.1.13,2013-04-22 19:49:00,
2013-04-22 15:55:00,67.0,42.5,30.25,NE,51,5.0,5.0,41,0.00,,,0.00,Wunderground v.1.13,2013-04-22 19:55:00,
2013-04-22 16:00:00,67.5,44.8,30.25,ESE,110,6.0,6.0,44,0.00,,,0.00,Wunderground v.1.13,2013-04-22 20:00:00,
2013-04-22 16:06:00,67.7,43.8,30.24,East,88,4.0,5.0,42,0.00,,,0.00,Wunderground v.1.13,2013-04-22 20:06:00,
2013-04-22 16:12:00,67.6,43.1,30.24,East,85,4.0,5.0,41,0.00,,,0.00,Wunderground v.1.13,2013-04-22 20:12:00,
2013-04-22 16:18:00,67.6,43.1,30.24,NE,48,5.0,9.0,41,0.00,,,0.00,Wunderground v.1.13,2013-04-22 20:18:00,
2013-04-22 16:24:00,66.8,43.0,30.23,East,86,8.0,16.0,42,0.00,,,0.00,Wunderground v.1.13,2013-04-22 20:24:00,
2013-04-22 16:30:00,67.1,42.6,30.23,East,92,6.0,6.0,41,0.00,,,0.00,Wunderground v.1.13,2013-04-22 20:30:00,
2013-04-22 16:35:00,67.3,44.0,30.23,NE,41,3.0,3.0,43,0.00,,,0.00,Wunderground v.1.13,2013-04-22 20:35:00,
2013-04-22 16:40:00,67.4,44.1,30.23,NE,42,4.0,11.0,43,0.00,,,0.00,Wunderground v.1.13,2013-04-22 20:40:00,
2013-04-22 16:46:00,67.2,44.5,30.22,ESE,105,7.0,7.0,44,0.00,,,0.00,Wunderground v.1.13,2013-04-22 20:46:00,
2013-04-22 16:51:00,67.6,44.3,30.22,NNE,32,5.0,11.0,43,0.00,,,0.00,Wunderground v.1.13,2013-04-22 20:51:00,
2013-04-22 16:57:00,67.6,44.3,30.22,East,95,5.0,5.0,43,0.00,,,0.00,Wunderground v.1.13,2013-04-22 20:57:00,
2013-04-22 17:03:00,68.1,44.1,30.22,East,83,3.0,5.0,42,0.00,,,0.00,Wunderground v.1.13,2013-04-22 21:03:00,
2013-04-22 17:09:00,68.3,43.7,30.22,ESE,103,3.0,10.0,41,0.00,,,0.00,Wunderground v.1.13,2013-04-22 21:09:00,
2013-04-22 17:14:00,67.9,43.3,30.21,ESE,111,5.0,10.0,41,0.00,,,0.00,Wunderground v.1.13,2013-04-22 21:14:00,
2013-04-22 17:20:00,68.0,44.0,30.21,NE,51,5.0,5.0,42,0.00,,,0.00,Wunderground v.1.13,2013-04-22 21:20:00,
2013-04-22 17:25:00,68.1,44.1,30.21,NE,43,3.0,3.0,42,0.00,,,0.00,Wunderground v.1.13,2013-04-22 21:25:00,
2013-04-22 17:31:00,68.2,44.2,30.21,ESE,105,3.0,8.0,42,0.00,,,0.00,Wunderground v.1.13,2013-04-22 21:31:00,
2013-04-22 17:37:00,68.2,44.2,30.20,ESE,121,4.0,5.0,42,0.00,,,0.00,Wunderground v.1.13,2013-04-22 21:37:00,
2013-04-22 17:43:00,68.1,43.5,30.20,East,94,3.0,6.0,41,0.00,,,0.00,Wunderground v.1.13,2013-04-22 21:43:00,
2013-04-22 17:48:00,68.1,43.5,30.20,NE,40,3.0,7.0,41,0.00,,,0.00,Wunderground v.1.13,2013-04-22 21:48:00,
2013-04-22 17:54:00,68.1,43.5,30.20,ESE,107,4.0,6.0,41,0.00,,,0.00,Wunderground v.1.13,2013-04-22 21:54:00,
2013-04-22 17:59:00,68.3,43.7,30.20,East,98,2.0,5.0,41,0.00,,,0.00,Wunderground v.1.13,2013-04-22 21:59:00,
2013-04-22 18:05:00,68.1,43.5,30.20,East,96,4.0,9.0,41,0.00,,,0.00,Wunderground v.1.13,2013-04-22 22:05:00,
2013-04-22 18:11:00,67.9,43.3,30.20,East,96,6.0,6.0,41,0.00,,,0.00,Wunderground v.1.13,2013-04-22 22:11:00,
2013-04-22 18:16:00,67.8,43.2,30.20,East,101,5.0,5.0,41,0.00,,,0.00,Wunderground v.1.13,2013-04-22 22:16:00,
2013-04-22 18:22:00,67.8,43.2,30.20,East,87,4.0,8.0,41,0.00,,,0.00,Wunderground v.1.13,2013-04-22 22:22:00,
2013-04-22 18:28:00,67.8,43.2,30.20,ESE,114,4.0,5.0,41,0.00,,,0.00,Wunderground v.1.13,2013-04-22 22:28:00,
2013-04-22 18:34:00,67.9,44.0,30.20,East,90,2.0,4.0,42,0.00,,,0.00,Wunderground v.1.13,2013-04-22 22:34:00,
2013-04-22 18:39:00,68.0,44.0,30.20,East,96,1.0,3.0,42,0.00,,,0.00,Wunderground v.1.13,2013-04-22 22:39:00,
2013-04-22 18:45:00,68.0,44.0,30.20,ESE,105,2.0,3.0,42,0.00,,,0.00,Wunderground v.1.13,2013-04-22 22:45:00,
2013-04-22 18:51:00,67.7,43.1,30.19,East,96,3.0,4.0,41,0.00,,,0.00,Wunderground v.1.13,2013-04-22 22:51:00,
2013-04-22 18:57:00,67.6,43.1,30.19,East,98,3.0,6.0,41,0.00,,,0.00,Wunderground v.1.13,2013-04-22 22:57:00,
2013-04-22 19:03:00,67.5,43.6,30.19,NE,53,2.0,2.0,42,0.00,,,0.00,Wunderground v.1.13,2013-04-22 23:03:00,
2013-04-22 19:09:00,67.5,43.6,30.19,East,94,0.0,2.0,42,0.00,,,0.00,Wunderground v.1.13,2013-04-22 23:09:00,
2013-04-22 19:14:00,67.5,43.0,30.20,East,85,1.0,5.0,41,0.00,,,0.00,Wunderground v.1.13,2013-04-22 23:14:00,
2013-04-22 19:20:00,67.3,43.4,30.20,NE,54,2.0,2.0,42,0.00,,,0.00,Wunderground v.1.13,2013-04-22 23:20:00,
2013-04-22 19:26:00,67.1,43.2,30.20,ENE,58,1.0,1.0,42,0.00,,,0.00,Wunderground v.1.13,2013-04-22 23:26:00,
2013-04-22 19:31:00,67.0,42.5,30.20,NE,39,1.0,5.0,41,0.00,,,0.00,Wunderground v.1.13,2013-04-22 23:31:00,
2013-04-22 19:37:00,66.7,42.9,30.20,NNE,33,3.0,3.0,42,0.00,,,0.00,Wunderground v.1.13,2013-04-22 23:37:00,
2013-04-22 19:43:00,66.4,43.2,30.20,NE,37,1.0,2.0,43,0.00,,,0.00,Wunderground v.1.13,2013-04-22 23:43:00,
2013-04-22 19:48:00,66.3,42.5,30.20,NE,38,1.0,3.0,42,0.00,,,0.00,Wunderground v.1.13,2013-04-22 23:48:00,
2013-04-22 19:54:00,66.0,42.9,30.20,NE,38,1.0,1.0,43,0.00,,,0.00,Wunderground v.1.13,2013-04-22 23:54:00,
2013-04-22 19:59:00,65.7,43.8,30.20,NE,38,0.0,1.0,45,0.00,,,0.00,Wunderground v.1.13,2013-04-22 23:59:00,
2013-04-22 20:04:00,65.4,46.3,30.20,NE,38,0.0,0.0,50,0.00,,,0.00,Wunderground v.1.13,2013-04-23 00:04:00,
2013-04-22 20:10:00,64.9,46.3,30.20,NE,38,0.0,0.0,51,0.00,,,0.00,Wunderground v.1.13,2013-04-23 00:10:00,
2013-04-22 20:16:00,64.2,46.2,30.20,NE,38,0.0,0.0,52,0.00,,,0.00,Wunderground v.1.13,2013-04-23 00:16:00,
2013-04-22 20:21:00,63.2,46.3,30.20,NE,38,0.0,0.0,54,0.00,,,0.00,Wunderground v.1.13,2013-04-23 00:21:00,
2013-04-22 20:27:00,62.4,45.5,30.20,NE,38,0.0,0.0,54,0.00,,,0.00,Wunderground v.1.13,2013-04-23 00:27:00,
2013-04-22 20:33:00,61.2,45.8,30.20,NE,38,0.0,0.0,57,0.00,,,0.00,Wunderground v.1.13,2013-04-23 00:33:00,
2013-04-22 20:38:00,60.3,45.5,30.20,NE,38,0.0,0.0,58,0.00,,,0.00,Wunderground v.1.13,2013-04-23 00:38:00,
2013-04-22 20:44:00,59.2,44.9,30.20,NE,38,0.0,0.0,59,0.00,,,0.00,Wunderground v.1.13,2013-04-23 00:44:00,
2013-04-22 20:49:00,58.4,44.6,30.20,NE,38,0.0,0.0,60,0.00,,,0.00,Wunderground v.1.13,2013-04-23 00:49:00,
2013-04-22 20:55:00,57.3,44.0,30.20,NE,38,0.0,0.0,61,0.00,,,0.00,Wunderground v.1.13,2013-04-23 00:55:00,
2013-04-22 21:01:00,56.7,43.8,30.20,NE,38,0.0,0.0,62,0.00,,,0.00,Wunderground v.1.13,2013-04-23 01:01:00,
2013-04-22 21:07:00,56.2,43.8,30.21,NE,38,0.0,0.0,63,0.00,,,0.00,Wunderground v.1.13,2013-04-23 01:07:00,
2013-04-22 21:12:00,55.6,44.0,30.21,NE,38,0.0,0.0,65,0.00,,,0.00,Wunderground v.1.13,2013-04-23 01:12:00,
2013-04-22 21:18:00,54.9,43.7,30.20,NE,38,0.0,0.0,66,0.00,,,0.00,Wunderground v.1.13,2013-04-23 01:18:00,
2013-04-22 21:24:00,54.6,43.9,30.21,NE,38,0.0,0.0,67,0.00,,,0.00,Wunderground v.1.13,2013-04-23 01:24:00,
2013-04-22 21:29:00,54.2,43.9,30.21,NE,38,0.0,0.0,68,0.00,,,0.00,Wunderground v.1.13,2013-04-23 01:29:00,
2013-04-22 21:35:00,53.8,43.5,30.21,NE,38,0.0,0.0,68,0.00,,,0.00,Wunderground v.1.13,2013-04-23 01:35:00,
2013-04-22 21:41:00,53.2,43.7,30.21,NE,38,0.0,0.0,70,0.00,,,0.00,Wunderground v.1.13,2013-04-23 01:41:00,
2013-04-22 21:46:00,52.7,43.6,30.21,NE,38,0.0,0.0,71,0.00,,,0.00,Wunderground v.1.13,2013-04-23 01:46:00,
2013-04-22 21:52:00,52.0,43.3,30.21,NE,38,0.0,0.0,72,0.00,,,0.00,Wunderground v.1.13,2013-04-23 01:52:00,
2013-04-22 21:57:00,51.5,43.1,30.21,NE,38,0.0,0.0,73,0.00,,,0.00,Wunderground v.1.13,2013-04-23 01:57:00,
2013-04-22 22:02:00,51.0,43.0,30.21,NE,38,0.0,0.0,74,0.00,,,0.00,Wunderground v.1.13,2013-04-23 02:02:00,
2013-04-22 22:08:00,50.6,43.0,30.21,NE,38,0.0,0.0,75,0.00,,,0.00,Wunderground v.1.13,2013-04-23 02:08:00,
2013-04-22 22:14:00,50.2,42.9,30.21,NE,38,0.0,0.0,76,0.00,,,0.00,Wunderground v.1.13,2013-04-23 02:14:00,
2013-04-22 22:19:00,49.9,43.0,30.21,NE,38,0.0,0.0,77,0.00,,,0.00,Wunderground v.1.13,2013-04-23 02:19:00,
2013-04-22 22:25:00,49.6,42.7,30.21,NE,38,0.0,0.0,77,0.00,,,0.00,Wunderground v.1.13,2013-04-23 02:25:00,
2013-04-22 22:31:00,49.4,42.5,30.21,NE,38,0.0,0.0,77,0.00,,,0.00,Wunderground v.1.13,2013-04-23 02:31:00,
2013-04-22 22:37:00,49.2,42.3,30.22,NE,38,0.0,0.0,77,0.00,,,0.00,Wunderground v.1.13,2013-04-23 02:37:00,
2013-04-22 22:42:00,49.0,42.4,30.22,NE,38,0.0,0.0,78,0.00,,,0.00,Wunderground v.1.13,2013-04-23 02:42:00,
2013-04-22 22:48:00,48.7,42.5,30.22,NE,38,0.0,0.0,79,0.00,,,0.00,Wunderground v.1.13,2013-04-23 02:48:00,
2013-04-22 22:53:00,48.5,42.3,30.22,NE,38,0.0,0.0,79,0.00,,,0.00,Wunderground v.1.13,2013-04-23 02:53:00,
2013-04-22 22:59:00,48.3,42.1,30.22,NE,38,0.0,0.0,79,0.00,,,0.00,Wunderground v.1.13,2013-04-23 02:59:00,
2013-04-22 23:04:00,48.0,41.8,30.22,NE,38,0.0,0.0,79,0.00,,,0.00,Wunderground v.1.13,2013-04-23 03:04:00,
2013-04-22 23:09:00,47.8,41.6,30.22,NE,38,0.0,0.0,79,0.00,,,0.00,Wunderground v.1.13,2013-04-23 03:09:00,
2013-04-22 23:15:00,47.6,42.1,30.22,NE,38,0.0,0.0,81,0.00,,,0.00,Wunderground v.1.13,2013-04-23 03:15:00,
2013-04-22 23:21:00,47.4,41.9,30.22,NE,38,0.0,0.0,81,0.00,,,0.00,Wunderground v.1.13,2013-04-23 03:21:00,
2013-04-22 23:26:00,47.2,41.7,30.22,NE,38,0.0,0.0,81,0.00,,,0.00,Wunderground v.1.13,2013-04-23 03:26:00,
2013-04-22 23:32:00,46.9,41.7,30.22,NE,38,0.0,0.0,82,0.00,,,0.00,Wunderground v.1.13,2013-04-23 03:32:00,
2013-04-22 23:38:00,46.7,41.8,30.22,NE,38,0.0,0.0,83,0.00,,,0.00,Wunderground v.1.13,2013-04-23 03:38:00,
2013-04-22 23:44:00,46.4,41.5,30.22,NE,38,0.0,0.0,83,0.00,,,0.00,Wunderground v.1.13,2013-04-23 03:44:00,
2013-04-22 23:49:00,46.3,41.4,30.22,NE,38,0.0,0.0,83,0.00,,,0.00,Wunderground v.1.13,2013-04-23 03:49:00,
2013-04-22 23:55:00,46.0,41.1,30.22,NE,38,0.0,0.0,83,0.00,,,0.00,Wunderground v.1.13,2013-04-23 03:55:00,